This is the latest recevied weather packets stored in our database for station/object GBTWP-2. If no packets are shown the sender has not sent any weather packets the latest 10 day(s).
| Time | Temp. | Humidity | Pressure | Rain* | Wind** | Luminosity | Snow |
|---|---|---|---|---|---|---|---|
| 1788380820 | 32.22° C | 59% | 1015.3 hPa | 0 mm | - | 303 W/m² | - |
| 1788380518 | 33.33° C | 57% | 1015.4 hPa | 0 mm | - | 257 W/m² | - |
| 1788380220 | 33.33° C | 58% | 1015.2 hPa | 0 mm | - | 222 W/m² | - |
| 1788379917 | 33.89° C | 58% | 1015.4 hPa | 0 mm | - | 330 W/m² | - |
| 1788379620 | 33.33° C | 58% | 1015.6 hPa | 0 mm | - | 440 W/m² | - |
| 1788379320 | 33.33° C | 58% | 1015.6 hPa | 0 mm | - | 293 W/m² | - |
| 1788379019 | 33.33° C | 58% | 1015.8 hPa | 0 mm | - | 311 W/m² | - |
| 1788378719 | 33.89° C | 57% | 1015.7 hPa | 0 mm | - | 214 W/m² | - |
| 1788378420 | 33.33° C | 57% | 1015.6 hPa | 0 mm | - | 319 W/m² | - |
| 1788378119 | 32.78° C | 58% | 1016 hPa | 0 mm | - | 477 W/m² | - |
| 1788377819 | 33.33° C | 57% | 1015.9 hPa | 0 mm | - | 487 W/m² | - |
| 1788377520 | 33.33° C | 58% | 1015.9 hPa | 0 mm | - | 370 W/m² | - |
| 1788377220 | 33.33° C | 57% | 1016.2 hPa | 0 mm | - | 407 W/m² | - |
| 1788376919 | 33.33° C | 57% | 1016.1 hPa | 0 mm | - | 485 W/m² | - |
| 1788376620 | 33.33° C | 58% | 1016.3 hPa | 0 mm | - | 184 W/m² | - |
| 1788376319 | 33.33° C | 58% | 1016.3 hPa | 0 mm | - | 348 W/m² | - |
| 1788376019 | 33.33° C | 58% | 1016.5 hPa | 0 mm | - | 360 W/m² | - |
| 1788375719 | 33.89° C | 57% | 1016.3 hPa | 0 mm | - | 307 W/m² | - |
| 1788375419 | 33.33° C | 60% | 1016.4 hPa | 0 mm | - | 548 W/m² | - |
| 1788375120 | 33.33° C | 60% | 1016.4 hPa | 0 mm | - | 446 W/m² | - |
| 1788374816 | 33.89° C | 58% | 1016.4 hPa | 0 mm | - | 345 W/m² | - |
| 1788374519 | 33.33° C | 58% | 1016.4 hPa | 0 mm | - | 570 W/m² | - |
| 1788374219 | 33.33° C | 58% | 1016.5 hPa | 0 mm | - | 574 W/m² | - |
| 1788373921 | 33.33° C | 60% | 1016.6 hPa | 0 mm | - | 574 W/m² | - |
| 1788373619 | 32.78° C | 63% | 1016.6 hPa | 0 mm | - | 507 W/m² | - |
* Rain latest hour (hover to see other rain measurements)
** Current wind speed in m/s (hover to see current wind gust speed)